User: anonymous   Login
Location: Unspecified
(0.0000°N, 0.0000°E)
Time: 07:47:17
(UTC+00:00)
Language:

STARLINK-5895 - Orbit

View from above orbital plane
View from above orbital plane
View from above satellite
View from above satellite

Ground track
Ground track

The orbit is defined by the following mean orbital elements,

1 55964U          26145.51406534 +.00000000 +00000-0 +78993-3 0 00007
2 55964  69.9963  63.7811 0005293 220.1248 139.9527 15.09742111    04
Epoch (UTC): 25 May 2026 12:20:15
Eccentricity: 0.0005293
inclination: 69.9963°
perigee height: 533 km
apogee height: 541 km
right ascension of ascending node: 63.7811°
argument of perigee: 220.1248°
revolutions per day: 15.09742111
mean anomaly at epoch: 139.9527°

The dashed part of the orbit path shows where the satellite is in the earth's shadow,  

DLR